Location: Amsterdam
(30.7274°N, 84.4357°W)
Time: 06:44:36
(UTC+00:00)

NANOSAT C BR1 - Visible Passes

Search period start: 11 March 2026 00:00
Search period end: 21 March 2026 00:00
Orbit: 478 x 485 km, 98.1° (Epoch: 10 March)

Date Brightness Start Highest point End Pass type
(mag) Time Alt. Az. Time Alt. Az. Time Alt. Az.
11 Mar ? 00:48:21 10° SSW 00:51:28 28° W 00:54:35 10° NW visible
12 Mar ? 00:22:29 10° S 00:26:02 72° WSW 00:29:36 10° NNW visible
14 Mar ? 01:06:04 10° SW 01:08:28 17° W 01:10:53 10° NW visible
15 Mar ? 00:39:32 10° S 00:42:53 40° W 00:46:16 10° NNW visible
16 Mar ? 00:13:48 10° SSE 00:17:21 78° ENE 00:20:55 10° N visible
17 Mar ? 01:24:36 10° WSW 01:25:10 10° W 01:25:43 10° W visible
18 Mar ? 00:56:30 10° SSW 00:59:25 24° W 01:02:21 10° NW visible
19 Mar ? 00:30:13 10° S 00:33:43 59° W 00:37:14 10° NNW visible
